[[{"header":{"parameterUnit":"m.s-1","parameterCategory":2,"la1":30.2991,"la2":30.254,"lo1":-89.0895,"lo2":-89.0444,"dy":0.0017,"dx":0.0017,"nx":28,"ny":28,"refTime":"2023-08-23T21:00:00:Z","depth":"0","parameterNumber":2,"parameterNumberName":"U-component_of_CURRENTS"},"data":[0,0,0,0,0,0,0,0,0,0,0,0,0,0,0,0,0,0,0,0,0,0,0,0,0,0,0,0,0,0,0,0,0,0,0,0,0,0,0,0,0,0,0,0,0,0,0,0,0,0,0,0,0,0,0,0,0,0,0.0625,0.0626,0,0.0641,0.0641,0.0641,0.0653,0.0653,0.0653,0.0653,0.0622,0.0621,0.0619,0,0,0,0,0,0,0,0,0,0,0,0,0,0.0605,0.0605,0.0625,0.0626,0.0626,0.0641,0.0641,0.0641,0.0653,0.0653,0.0653,0.0654,0.0622,0.0621,0.0619,0,0,0,0,0,0,0,0,0,0,0,0,0,0.0615,0.0605,0.0625,0.0635,0.0636,0.0641,0.0641,0.0641,0.0652,0.0653,0.0653,0.0654,0.0622,0.0621,0.0619,0.0601,0,0,0.0614,0.0613,0,0,0,0,0,0,0,0,0.0614,0.0615,0.0633,0.0634,0.0636,0.0647,0.0623,0.0626,0.0652,0.0644,0.0653,0.0654,0.0627,0.0625,0.0625,0.0599,0.0598,0.0614,0.0613,0.0612,0.0612,0,0,0,0,0,0,0,0.0614,0.0615,0.063,0.0634,0.0635,0.0639,0.064,0.0623,0.063,0.0645,0.0646,0.0651,0.0627,0.0626,0.0624,0.0597,0.0614,0.0613,0.0612,0.0611,0.0715,0.0719,0,0,0,0,0,0,0.0615,0.0614,0.0629,0.063,0.0628,0.0639,0.0641,0.0641,0.0632,0.0632,0.0651,0.0652,0.0629,0.0626,0.0623,0.0766,0.0612,0.0611,0.061,0.0712,0.0716,0.072,0,0,0,0,0,0,0.0614,0.0616,0.0629,0.0624,0.0626,0.0639,0.064,0.0642,0.0647,0.0637,0.0636,0.0655,0.0629,0.0625,0.0638,0.0758,0.061,0.0608,0.0707,0.0713,0.0718,0.0945,0,0,0,0,0,0,0.0614,0.0616,0.0613,0.0624,0.0627,0.0648,0.064,0.0642,0.0649,0.0651,0.064,0.0637,0.0629,0.0641,0.0637,0.0753,0.0607,0.0702,0.071,0.0716,0.0932,0.0957,0.0979,0,0,0,0,0,0.0613,0.0615,0.0613,0.0615,0.0624,0.0649,0.0651,0.0659,0.0649,0.0662,0.0665,0.0638,0.0685,0.0641,0.0635,0.0755,0.0699,0.0708,0.0716,0.0922,0.0953,0.0978,0,0,0,0,0,0,0.0598,0.0617,0.0615,0.062,0.0639,0.0652,0.0663,0.066,0.0669,0.0671,0.0653,0.0652,0.0729,0.0686,0.0638,0.0806,0.07,0.0708,0.0859,0.0887,0.091,0.1047,0.0606,0,0,0,0,0,0.0594,0.0611,0.0623,0.0631,0.064,0.0648,0.0656,0.0664,0.0675,0.0679,0.0677,0.0694,0.0758,0.0771,0.0792,0.0845,0.0892,0.0927,0.095,0.097,0.1079,0.1245,0.1296,0.0748,0.0748,0.0748,0,0,0.0593,0.0605,0.0614,0.0631,0.0645,0.0716,0.0654,0.0677,0.0767,0.0672,0.0768,0.0761,0.0786,0.0888,0.0918,0.0865,0.1135,0.0981,0.0999,0.1099,0.126,0.1314,0.1362,0.0754,0.0753,0.0752,0,0,0.0646,0.0609,0.0667,0.0694,0.0725,0.0742,0.0752,0.077,0.0805,0.0867,0.0873,0.0957,0.0959,0.1074,0.112,0.1276,0.1251,0.124,0.1475,0.1633,0.1681,0.1725,0.1794,0.1842,0.1253,0.1253,0.1254,0,0.0656,0.0732,0.0685,0.0766,0.0821,0.077,0.0876,0.0907,0.0935,0.1008,0.0926,0.1102,0.1102,0.1345,0.1423,0.1349,0.138,0.1365,0.1671,0.1716,0.1757,0.1817,0.1868,0.1265,0.1264,0.1263,0.1261,0,0.0781,0.0846,0.088,0.0985,0.102,0.1088,0.1133,0.118,0.1189,0.1244,0.142,0.1435,0.1558,0.1574,0.1557,0.1862,0.1766,0.168,0.1614,0.1827,0.1873,0.1922,0.1282,0.1278,0.1274,0.1272,0,0,0.0857,0.0955,0.0986,0.1069,0.1149,0.1195,0.1344,0.149,0.1601,0.1653,0.1837,0.2008,0.1993,0.2053,0.2036,0.22,0.2488,0.2082,0.2085,0.2177,0.2784,0.2656,0.2694,0.2437,0.2448,0.2457,0.2678,0,0.1008,0.1193,0.121,0.1408,0.1514,0.1526,0.1662,0.1773,0.183,0.1961,0.208,0.22,0.2176,0.2208,0.2404,0.2432,0.2637,0.2434,0.2546,0.255,0.2435,0.2758,0.269,0.288,0.2725,0.2733,0.2739,0,0.1202,0.1288,0.1498,0.1641,0.1685,0.178,0.1971,0.2075,0.2249,0.2287,0.2465,0.2472,0.2746,0.2634,0.2971,0.282,0.2896,0.2927,0.2933,0.2803,0.2521,0.2653,0.2973,0.2914,0.2813,0.2807,0.2801,0,0.1355,0.1524,0.1693,0.1746,0.1878,0.1976,0.2042,0.2198,0.2269,0.2479,0.2517,0.2806,0.2866,0.3091,0.3145,0.3077,0.3442,0.3318,0.3315,0.3298,0.3274,0.3237,0.3597,0.368,0.368,0.3679,0.3678,0,0.157,0.1718,0.1758,0.1857,0.2003,0.207,0.2223,0.2322,0.2441,0.2537,0.2672,0.2777,0.2988,0.3148,0.3262,0.3431,0.3546,0.3492,0.3424,0.3332,0.3301,0.3262,0.3192,0.3687,0.3685,0.3684,0.3682,0,0.1767,0.1818,0.1972,0.2067,0.2084,0.218,0.2228,0.2316,0.2431,0.2549,0.2605,0.2789,0.3002,0.3175,0.3463,0.3513,0.3623,0.3736,0.3565,0.3479,0.3397,0.3337,0.3487,0.3382,0.3829,0.3829,0.3828,0,0.1914,0.2007,0.2058,0.2069,0.2106,0.2191,0.2223,0.2312,0.2363,0.2541,0.2594,0.2811,0.2949,0.3288,0.3476,0.3713,0.3614,0.3739,0.3674,0.3526,0.3411,0.3201,0.3085,0.3696,0.3694,0.3693,0.3692,0,0.2103,0.2084,0.2132,0.2136,0.2154,0.2168,0.2213,0.2233,0.2337,0.243,0.2556,0.268,0.2998,0.3212,0.3476,0.3607,0.3562,0.3715,0.3683,0.3515,0.3206,0.3017,0.3322,0.368,0.3681,0.3682,0.3683,0.3683,0.2161,0.2173,0.2149,0.2156,0.2153,0.2119,0.2108,0.2149,0.2199,0.231,0.2465,0.2635,0.2991,0.3366,0.3443,0.3564,0.3491,0.3567,0.3555,0.339,0.3196,0.3435,0.361,0.3611,0.3612,0.3612,0.3613,0,0.2167,0.2144,0.2154,0.2105,0.2067,0.2081,0.2067,0.2039,0.2059,0.2228,0.2345,0.27,0.2959,0.322,0.3494,0.3453,0.3289,0.3395,0.3177,0.3105,0.3486,0.3385,0.3373,0.3373,0.3373,0.3373,0.3373,0.3373,0.2151,0.2115,0.2098,0.2005,0.1974,0.1888,0.1856,0.1851,0.1932,0.2081,0.2271,0.2476,0.2867,0.3293,0.3401,0.3357,0.3128,0.3016,0.295,0.3306,0.3321,0.3336,0.3234,0.319,0.319,0.2464,0.2459,0.2456]},{"header":{"parameterUnit":"m.s-1","parameterCategory":2,"la1":30.2991,"la2":30.254,"lo1":-89.0895,"lo2":-89.0444,"dy":0.0017,"dx":0.0017,"nx":28,"ny":28,"refTime":"2023-08-23T21:00:00:Z","depth":"0","parameterNumber":3,"parameterNumberName":"V-component_of_CURRENTS"},"data":[0,0,0,0,0,0,0,0,0,0,0,0,0,0,0,0,0,0,0,0,0,0,0,0,0,0,0,0,0,0,0,0,0,0,0,0,0,0,0,0,0,0,0,0,0,0,0,0,0,0,0,0,0,0,0,0,0,0,0.0133,0.0132,0,0.0073,0.0072,0.0071,0.0036,0.0036,0.0035,0.0035,-0.0044,-0.0046,-0.0048,0,0,0,0,0,0,0,0,0,0,0,0,0,0.0212,0.021,0.0133,0.0132,0.0131,0.0073,0.0072,0.0071,0.0036,0.0036,0.0035,0.0035,-0.0043,-0.0045,-0.0048,0,0,0,0,0,0,0,0,0,0,0,0,0,0.0167,0.021,0.0133,0.0106,0.0103,0.0073,0.0072,0.0071,0.0036,0.0035,0.0035,0.0035,-0.0042,-0.0045,-0.0048,-0.0061,0,0,-0.0057,-0.0058,0,0,0,0,0,0,0,0,0.017,0.0165,0.0111,0.0108,0.0105,0.0061,0.0071,0.0026,0.0036,0.0062,0.0035,0.0035,-0.001,-0.0016,-0.0026,-0.0064,-0.0068,-0.0057,-0.0059,-0.006,-0.0061,0,0,0,0,0,0,0,0.0173,0.0167,0.0109,0.011,0.0106,0.0096,0.0089,0.0062,0.0028,0.0059,0.0057,0.005,-0.0012,-0.0023,-0.0028,-0.0069,-0.0057,-0.006,-0.0062,-0.0063,-0.0081,-0.008,0,0,0,0,0,0,0.018,0.017,0.0111,0.0108,0.0137,0.0094,0.0087,0.0076,0.0028,0.0021,0.005,0.0048,-0.0018,-0.0025,-0.0031,0.0028,-0.006,-0.0063,-0.0065,-0.0083,-0.0081,-0.008,0,0,0,0,0,0,0.0182,0.0176,0.0114,0.0138,0.0129,0.0093,0.0081,0.0075,0.0066,0.0021,0.0014,0.0047,-0.0019,-0.0027,-0.0046,0.0022,-0.0064,-0.0067,-0.0084,-0.0082,-0.008,0.0098,0,0,0,0,0,0,0.0185,0.0177,0.0173,0.0138,0.0128,0.0108,0.0081,0.0074,0.0061,0.0059,0.0017,0.0009,-0.0019,-0.0041,-0.0048,0.0017,-0.0069,-0.0086,-0.0083,-0.0081,0.0091,0.0106,0.0119,0,0,0,0,0,0.0188,0.0187,0.0173,0.0166,0.0123,0.0108,0.0103,0.0077,0.0062,0.0066,0.0037,0.001,-0.0031,-0.0043,-0.0052,0.0014,-0.0087,-0.0084,-0.0081,0.0084,0.0103,0.0118,0,0,0,0,0,0,0.0219,0.0182,0.0167,0.0154,0.0138,0.0102,0.0101,0.0082,0.0061,0.0059,0.0015,0.0006,0.0023,-0.0023,-0.0035,0.0011,-0.0059,-0.0058,0.007,0.0087,0.0101,0.0216,-0.0072,0,0,0,0,0,0.0225,0.0216,0.0182,0.0175,0.0167,0.0135,0.0125,0.011,0.0085,0.0076,0.0049,0.0024,0.0027,0.0021,0.0002,0.0016,0.0015,0.0052,0.0066,0.0079,0.0163,0.0208,0.0236,-0.0071,-0.0071,-0.0071,0,0,0.0238,0.0214,0.0211,0.0182,0.0165,0.0193,0.0129,0.0123,0.0168,0.0071,0.0112,0.0068,0.0038,0.0069,0.0073,0.004,0.0151,0.0082,0.0094,0.0174,0.0215,0.0245,0.0273,-0.0069,-0.0069,-0.0069,0,0,0.0283,0.0237,0.0261,0.0255,0.0237,0.0224,0.0228,0.02,0.0208,0.0224,0.0187,0.0198,0.0158,0.0188,0.0191,0.0268,0.0222,0.0229,0.0405,0.0445,0.0473,0.0498,0.0486,0.0508,0.024,0.024,0.0241,0,0.0308,0.0338,0.0267,0.03,0.033,0.0252,0.032,0.0311,0.0287,0.034,0.026,0.0304,0.0247,0.0366,0.0386,0.0315,0.03,0.0346,0.0472,0.0496,0.0519,0.0501,0.0523,0.0249,0.0248,0.0247,0.0246,0,0.0386,0.0419,0.0433,0.0463,0.0473,0.0511,0.0499,0.0521,0.0508,0.0523,0.0608,0.054,0.059,0.0551,0.0492,0.0634,0.0555,0.0484,0.0446,0.0562,0.0532,0.0553,0.0262,0.0259,0.0256,0.0254,0,0,0.0461,0.0491,0.0505,0.0576,0.0578,0.0609,0.0684,0.0771,0.0872,0.0834,0.0985,0.0967,0.0938,0.0942,0.0865,0.0892,0.0983,0.0765,0.0763,0.0786,0.1042,0.0933,0.0943,0.0925,0.093,0.0935,0.094,0,0.0575,0.0691,0.0673,0.0821,0.0901,0.0881,0.0974,0.1032,0.1057,0.1159,0.1145,0.1214,0.1081,0.1097,0.1122,0.1018,0.1054,0.0987,0.0902,0.0901,0.0818,0.0972,0.0886,0.0882,0.096,0.0963,0.0966,0,0.0708,0.0768,0.0926,0.1064,0.1098,0.1166,0.1336,0.14,0.1503,0.1525,0.1603,0.1556,0.162,0.1454,0.1437,0.1391,0.1272,0.1173,0.1169,0.1048,0.0835,0.0785,0.0915,0.0678,0.0996,0.0994,0.0992,0,0.0862,0.0981,0.1125,0.1163,0.1269,0.1366,0.1428,0.1536,0.1616,0.1755,0.1808,0.1882,0.1869,0.1806,0.1571,0.1522,0.1503,0.1397,0.1207,0.1193,0.1105,0.1075,0.1042,0.1441,0.1441,0.1441,0.1441,0,0.1037,0.1161,0.1209,0.1292,0.1466,0.1509,0.1696,0.1767,0.1885,0.1989,0.1996,0.2063,0.1951,0.1884,0.1706,0.1519,0.1611,0.1318,0.1233,0.1151,0.1127,0.0898,0.0771,0.1441,0.1441,0.1441,0.1441,0,0.1195,0.1235,0.1389,0.1503,0.1541,0.166,0.1778,0.1896,0.2001,0.2132,0.2172,0.2207,0.2138,0.1983,0.1838,0.165,0.1351,0.1395,0.1279,0.1184,0.0812,0.0696,0.0665,0.0532,0.1262,0.126,0.1258,0,0.1289,0.1383,0.1493,0.1536,0.1583,0.1725,0.1805,0.1936,0.2034,0.2188,0.2249,0.2255,0.2246,0.2016,0.1726,0.148,0.1267,0.1206,0.1136,0.0859,0.0668,0.0613,0.0499,0.1053,0.105,0.1048,0.1045,0,0.1409,0.1432,0.1497,0.1594,0.1677,0.1791,0.1917,0.201,0.2152,0.2257,0.2353,0.2377,0.2185,0.1932,0.1599,0.1388,0.1025,0.1144,0.0919,0.0604,0.0489,0.0292,0.0929,0.1022,0.1025,0.1026,0.1028,0.1028,0.1418,0.1465,0.1507,0.1607,0.1701,0.1822,0.1914,0.2035,0.2181,0.2337,0.238,0.2438,0.2111,0.1678,0.1354,0.0747,0.0834,0.0572,0.0481,0.0472,0.0297,0.087,0.0819,0.082,0.0821,0.0821,0.0822,0,0.1375,0.1419,0.1507,0.1607,0.1706,0.1779,0.1948,0.2037,0.2167,0.2339,0.2427,0.2328,0.1824,0.1357,0.0591,0.0169,0.0017,-0.0052,-0.0146,-0.0213,0.0347,0.0284,0.004,0.004,0.0041,0.0041,0.0041,0.0041,0.1326,0.1364,0.1427,0.1557,0.1651,0.1781,0.1872,0.2012,0.2166,0.2333,0.2423,0.2513,0.2157,0.081,-0.0188,-0.0428,-0.0714,-0.0754,-0.0872,-0.0527,-0.0476,-0.0428,-0.0514,-0.0922,-0.0923,-0.1415,-0.142,-0.1424]}],[{"header":{"parameterUnit":"m.s-1","parameterCategory":2,"la1":30.2991,"la2":30.254,"lo1":-89.0895,"lo2":-89.0444,"dy":0.0017,"dx":0.0017,"nx":28,"ny":28,"refTime":"2023-08-23T21:00:00:Z","depth":"2","parameterNumber":2,"parameterNumberName":"U-component_of_CURRENTS"},"data":[0,0,0,0,0,0,0,0,0,0,0,0,0,0,0,0,0,0,0,0,0,0,0,0,0,0,0,0,0,0,0,0,0,0,0,0,0,0,0,0,0,0,0,0,0,0,0,0,0,0,0,0,0,0,0,0,0,0,0.1307,0.1308,0,0.1352,0.1353,0.1353,0.1371,0.1371,0.1371,0.1371,0.1414,0.1415,0.1416,0,0,0,0,0,0,0,0,0,0,0,0,0,0.124,0.1241,0.1307,0.1308,0.1309,0.1352,0.1353,0.1353,0.1371,0.1371,0.1371,0.1371,0.1413,0.1414,0.1416,0,0,0,0,0,0,0,0,0,0,0,0,0,0.1274,0.1241,0.1307,0.1324,0.1326,0.1352,0.1353,0.1353,0.1371,0.1371,0.1371,0.1371,0.1413,0.1414,0.1416,0.1426,0,0,0.1421,0.1422,0,0,0,0,0,0,0,0,0.1272,0.1276,0.1321,0.1323,0.1325,0.1357,0.1344,0.1378,0.1371,0.1352,0.1371,0.1371,0.1395,0.1399,0.1405,0.1428,0.1429,0.1421,0.1422,0.1423,0.1423,0,0,0,0,0,0,0,0.1269,0.1274,0.1324,0.1321,0.1324,0.133,0.1335,0.1351,0.1372,0.1354,0.1356,0.1363,0.1396,0.1403,0.1406,0.143,0.1421,0.1423,0.1424,0.1424,0.1565,0.1568,0,0,0,0,0,0,0.1267,0.1272,0.1322,0.1325,0.13,0.1331,0.1337,0.1346,0.1372,0.1376,0.1363,0.1364,0.14,0.1404,0.1408,0.15,0.1423,0.1425,0.1425,0.1562,0.1566,0.1568,0,0,0,0,0,0,0.1265,0.1271,0.132,0.13,0.1307,0.1333,0.1343,0.1347,0.1368,0.1379,0.1383,0.1382,0.1401,0.1405,0.1444,0.1498,0.1425,0.1427,0.1559,0.1563,0.1567,0.1633,0,0,0,0,0,0,0.1263,0.127,0.1278,0.13,0.1309,0.135,0.1343,0.1348,0.1372,0.1374,0.1397,0.14,0.1401,0.1441,0.1445,0.1499,0.1428,0.1555,0.1561,0.1566,0.1627,0.1639,0.1648,0,0,0,0,0,0.1261,0.1277,0.1278,0.1284,0.1318,0.1351,0.1356,0.1372,0.1373,0.139,0.1409,0.14,0.1478,0.1444,0.1448,0.1504,0.1553,0.1559,0.1565,0.1622,0.1636,0.1648,0,0,0,0,0,0,0.1259,0.1281,0.1283,0.1307,0.1331,0.1355,0.1372,0.1382,0.1409,0.1414,0.142,0.1425,0.1487,0.1485,0.1448,0.1564,0.152,0.1528,0.1563,0.1576,0.1586,0.1585,0.1429,0,0,0,0,0,0.1259,0.1275,0.1299,0.132,0.1332,0.1353,0.1369,0.1383,0.1408,0.1421,0.1439,0.147,0.1514,0.1534,0.1564,0.1613,0.1612,0.1659,0.1669,0.1678,0.1684,0.1743,0.1758,0.1589,0.1589,0.1588,0,0,0.1266,0.1279,0.1289,0.132,0.1337,0.1366,0.1363,0.1397,0.143,0.1421,0.1474,0.1504,0.1536,0.1601,0.1629,0.1606,0.1724,0.1686,0.1693,0.1694,0.1751,0.1767,0.1781,0.1593,0.1592,0.1591,0,0,0.1286,0.1297,0.1316,0.1337,0.1369,0.1386,0.1399,0.1434,0.146,0.151,0.1528,0.159,0.1635,0.1683,0.1709,0.1797,0.1779,0.1814,0.1865,0.1923,0.1937,0.1949,0.195,0.1962,0.1818,0.1819,0.1819,0,0.1294,0.1318,0.133,0.1354,0.1376,0.1397,0.1429,0.1461,0.1508,0.1542,0.1537,0.1654,0.1681,0.1779,0.1818,0.1823,0.1828,0.1809,0.1935,0.1947,0.1958,0.1957,0.1969,0.1822,0.1822,0.1822,0.1821,0,0.1327,0.1348,0.1365,0.1399,0.1425,0.1459,0.1499,0.1538,0.157,0.1607,0.1707,0.1753,0.1827,0.1858,0.1864,0.1975,0.1942,0.1939,0.1895,0.1979,0.1972,0.1984,0.1828,0.1827,0.1825,0.1825,0,0,0.1346,0.1381,0.1387,0.1405,0.1453,0.1478,0.154,0.1607,0.1657,0.1721,0.1798,0.1899,0.1933,0.1967,0.1999,0.2052,0.2136,0.2033,0.2034,0.202,0.2226,0.2122,0.2124,0.2155,0.2158,0.216,0.218,0,0.1373,0.1412,0.1431,0.1481,0.1505,0.1543,0.1598,0.1661,0.1719,0.1797,0.1878,0.1964,0.1973,0.2024,0.2085,0.2128,0.2173,0.2128,0.2158,0.2158,0.2046,0.2137,0.2018,0.202,0.2191,0.2193,0.2194,0,0.14,0.1423,0.1465,0.1516,0.1533,0.1569,0.1656,0.1712,0.182,0.1872,0.1972,0.2026,0.2141,0.2128,0.2242,0.2211,0.2231,0.2247,0.2248,0.2137,0.2078,0.1971,0.2034,0.2213,0.2211,0.221,0.2209,0,0.1394,0.1449,0.1479,0.1496,0.1559,0.1596,0.1644,0.1739,0.18,0.1929,0.1986,0.2112,0.2185,0.2247,0.2288,0.2279,0.2373,0.2364,0.2281,0.2272,0.2169,0.2145,0.2443,0.2443,0.2443,0.2443,0.2443,0,0.1407,0.1431,0.1478,0.1493,0.1546,0.1598,0.1672,0.1739,0.185,0.1929,0.203,0.2102,0.2223,0.2284,0.231,0.232,0.2396,0.2303,0.2288,0.2185,0.2164,0.233,0.2317,0.2444,0.2444,0.2444,0.2443,0,0.1382,0.1414,0.1448,0.1514,0.1538,0.1576,0.1672,0.1728,0.1836,0.1942,0.1992,0.2122,0.2199,0.2269,0.2359,0.2337,0.2361,0.234,0.2178,0.2144,0.221,0.22,0.2265,0.2262,0.2259,0.2257,0.2255,0,0.136,0.1377,0.1442,0.1463,0.149,0.1554,0.1598,0.1712,0.1777,0.1936,0.1984,0.2097,0.2147,0.221,0.2231,0.2247,0.2298,0.2108,0.2083,0.2222,0.2201,0.2196,0.2189,0.1967,0.1963,0.196,0.1957,0,0.1318,0.1346,0.1373,0.142,0.1462,0.1515,0.1593,0.1641,0.178,0.1841,0.1924,0.1972,0.2064,0.2035,0.2056,0.2043,0.2098,0.2037,0.227,0.2017,0.194,0.1919,0.1924,0.1927,0.193,0.1933,0.1934,0.1935,0.1274,0.1284,0.1325,0.1369,0.1418,0.1471,0.1501,0.1569,0.1631,0.1725,0.1798,0.1819,0.1885,0.1856,0.1812,0.1798,0.1926,0.1859,0.1871,0.1886,0.1835,0.1757,0.1697,0.1699,0.17,0.1701,0.1702,0,0.1213,0.124,0.1273,0.1326,0.1359,0.1414,0.1491,0.1487,0.1507,0.1603,0.1633,0.1521,0.1527,0.1597,0.1552,0.1539,0.1542,0.1467,0.1487,0.1518,0.1545,0.1477,0.1245,0.1243,0.1241,0.124,0,0,0.1177,0.1188,0.1216,0.1253,0.1299,0.1334,0.1368,0.1347,0.1392,0.1334,0.1356,0.1482,0.1572,0.1394,0.1377,0.1315,0.1402,0.1263,0.164,0.1698,0.1722,0.1789,0.1721,0,0,0,0,0]},{"header":{"parameterUnit":"m.s-1","parameterCategory":2,"la1":30.2991,"la2":30.254,"lo1":-89.0895,"lo2":-89.0444,"dy":0.0017,"dx":0.0017,"nx":28,"ny":28,"refTime":"2023-08-23T21:00:00:Z","depth":"2","parameterNumber":3,"parameterNumberName":"V-component_of_CURRENTS"},"data":[0,0,0,0,0,0,0,0,0,0,0,0,0,0,0,0,0,0,0,0,0,0,0,0,0,0,0,0,0,0,0,0,0,0,0,0,0,0,0,0,0,0,0,0,0,0,0,0,0,0,0,0,0,0,0,0,0,0,-0.0329,-0.0329,0,-0.0283,-0.0283,-0.0282,-0.0238,-0.0237,-0.0236,-0.0236,-0.0174,-0.0173,-0.0172,0,0,0,0,0,0,0,0,0,0,0,0,0,-0.0384,-0.0383,-0.0329,-0.0329,-0.0328,-0.0284,-0.0283,-0.0282,-0.0238,-0.0237,-0.0236,-0.0236,-0.0175,-0.0173,-0.0172,0,0,0,0,0,0,0,0,0,0,0,0,0,-0.0351,-0.0383,-0.0329,-0.0301,-0.0298,-0.0284,-0.0283,-0.0282,-0.0238,-0.0237,-0.0236,-0.0235,-0.0175,-0.0173,-0.0172,-0.0178,0,0,-0.0167,-0.0166,0,0,0,0,0,0,0,0,-0.0353,-0.0349,-0.0305,-0.0303,-0.0299,-0.0265,-0.028,-0.0247,-0.0238,-0.026,-0.0236,-0.0235,-0.0204,-0.02,-0.0193,-0.0176,-0.0173,-0.0166,-0.0165,-0.0165,-0.0164,0,0,0,0,0,0,0,-0.0356,-0.0351,-0.0311,-0.0305,-0.0301,-0.0292,-0.0287,-0.0273,-0.0237,-0.0258,-0.0255,-0.0251,-0.0202,-0.0195,-0.0191,-0.0172,-0.0167,-0.0165,-0.0164,-0.0163,-0.0112,-0.0112,0,0,0,0,0,0,-0.0362,-0.0353,-0.0312,-0.0309,-0.0325,-0.0292,-0.0286,-0.0277,-0.0237,-0.0231,-0.0251,-0.0249,-0.0198,-0.0193,-0.0189,-0.0137,-0.0165,-0.0163,-0.0162,-0.0113,-0.0112,-0.0112,0,0,0,0,0,0,-0.0364,-0.0359,-0.0314,-0.0331,-0.0324,-0.0292,-0.0283,-0.0277,-0.0251,-0.0232,-0.0225,-0.0229,-0.0197,-0.0191,-0.0163,-0.0136,-0.0162,-0.0161,-0.0113,-0.0113,-0.0112,-0.0069,0,0,0,0,0,0,-0.0365,-0.036,-0.0348,-0.0331,-0.0324,-0.029,-0.0283,-0.0276,-0.025,-0.0246,-0.0212,-0.0206,-0.0196,-0.0165,-0.0161,-0.0134,-0.016,-0.0114,-0.0113,-0.0112,-0.0071,-0.0067,-0.0064,0,0,0,0,0,-0.0367,-0.0352,-0.0348,-0.0342,-0.0311,-0.029,-0.0285,-0.0259,-0.025,-0.0234,-0.0214,-0.0206,-0.0158,-0.0163,-0.0159,-0.0131,-0.0114,-0.0113,-0.0112,-0.0072,-0.0068,-0.0064,0,0,0,0,0,0,-0.0362,-0.0346,-0.034,-0.0319,-0.0301,-0.0282,-0.0263,-0.0252,-0.0224,-0.0214,-0.0201,-0.0194,-0.016,-0.0158,-0.0164,-0.0117,-0.0135,-0.0133,-0.0106,-0.0102,-0.0099,-0.0097,-0.0158,0,0,0,0,0,-0.036,-0.0346,-0.033,-0.0311,-0.0301,-0.0282,-0.0267,-0.025,-0.0229,-0.0215,-0.0191,-0.0171,-0.0157,-0.0139,-0.0126,-0.0098,-0.0133,-0.0079,-0.0076,-0.0072,-0.007,-0.012,-0.0121,-0.0109,-0.0109,-0.0109,0,0,-0.0352,-0.0342,-0.0332,-0.0309,-0.0293,-0.0265,-0.0269,-0.024,-0.021,-0.0214,-0.016,-0.0157,-0.015,-0.0117,-0.0101,-0.0107,-0.0094,-0.0071,-0.0068,-0.0068,-0.0119,-0.012,-0.0122,-0.0109,-0.0109,-0.0109,0,0,-0.0333,-0.032,-0.0303,-0.0284,-0.0258,-0.0243,-0.0232,-0.0203,-0.0181,-0.0143,-0.0141,-0.0127,-0.0088,-0.0083,-0.0077,-0.005,-0.0078,-0.0039,-0.001,-0.0058,-0.006,-0.0062,-0.0109,-0.0115,-0.0032,-0.0031,-0.0031,0,-0.0323,-0.0297,-0.0293,-0.0268,-0.0242,-0.0231,-0.0196,-0.0176,-0.0137,-0.0123,-0.0116,-0.0085,-0.0075,-0.0056,-0.0039,-0.004,-0.0075,-0.0023,-0.0054,-0.0057,-0.0059,-0.0108,-0.0115,-0.0029,-0.003,-0.003,-0.003,0,-0.0291,-0.0263,-0.0248,-0.0212,-0.0187,-0.0153,-0.0128,-0.0097,-0.0073,-0.0059,-0.0032,-0.003,-0.0014,-0.0008,-0.0008,-0.0013,-0.0035,-0.0049,-0.0065,-0.0058,-0.0109,-0.0118,-0.0026,-0.0027,-0.0028,-0.0028,0,0,-0.0284,-0.0236,-0.0228,-0.0196,-0.015,-0.0123,-0.0078,-0.004,-0.0012,0.0011,0.0037,0.0053,0.0043,0.0047,0.0039,0.0006,-0.0038,-0.0019,-0.0022,-0.0066,-0.0148,-0.0172,-0.0185,-0.0061,-0.0062,-0.0063,-0.0177,0,-0.0255,-0.0197,-0.0181,-0.0112,-0.0074,-0.0048,-0.0006,0.0027,0.0049,0.0076,0.0061,0.0084,0.0067,0.0079,0.0041,-0.0015,-0.0059,-0.0006,-0.0149,-0.0153,-0.0176,-0.0195,-0.0155,-0.0254,-0.0186,-0.0188,-0.0189,0,-0.0226,-0.0188,-0.0122,-0.0053,-0.0035,0.0005,0.007,0.0107,0.0129,0.0145,0.0145,0.0134,0.011,0.0088,-0.0022,0.0012,-0.0061,-0.0118,-0.0124,-0.0167,-0.0193,-0.0251,-0.0273,-0.0204,-0.0203,-0.0202,-0.0201,0,-0.0213,-0.0144,-0.0088,-0.0061,0.0011,0.0046,0.0088,0.0127,0.0168,0.0184,0.0205,0.0162,0.0158,0.0052,-0.0045,-0.0038,-0.0188,-0.0197,-0.0295,-0.0298,-0.0303,-0.0304,-0.0293,-0.0293,-0.0293,-0.0293,-0.0292,0,-0.0182,-0.0135,-0.0076,-0.004,0.0037,0.0072,0.0144,0.0178,0.0218,0.0265,0.0239,0.0246,0.0149,0.0064,-0.0049,-0.0199,-0.0197,-0.0299,-0.0333,-0.0286,-0.0284,-0.0267,-0.0263,-0.0297,-0.0296,-0.0295,-0.0295,0,-0.0168,-0.0133,-0.0061,0.0017,0.0048,0.0105,0.02,0.0247,0.0273,0.033,0.0342,0.0308,0.0197,0.0074,-0.0093,-0.019,-0.0341,-0.0398,-0.0333,-0.0357,-0.0421,-0.0413,-0.0524,-0.0526,-0.0528,-0.0529,-0.053,0,-0.0154,-0.0118,-0.0019,0.0037,0.0079,0.0163,0.0226,0.028,0.0336,0.036,0.0389,0.0311,0.0263,0.0004,-0.0175,-0.0384,-0.0395,-0.0482,-0.0461,-0.0425,-0.0446,-0.0435,-0.0425,-0.0453,-0.0454,-0.0454,-0.0454,0,-0.0119,-0.0088,-0.0019,0.0087,0.0165,0.0254,0.0344,0.0394,0.0453,0.0477,0.0477,0.0429,0.0215,0.0024,-0.0235,-0.0372,-0.0444,-0.0497,-0.0491,-0.0394,-0.0366,-0.0384,-0.0375,-0.0457,-0.0457,-0.0456,-0.0456,-0.0456,-0.0087,-0.0032,0.0055,0.016,0.025,0.0349,0.0431,0.0494,0.0565,0.0623,0.0544,0.0491,0.0274,-0.0045,-0.0272,-0.0479,-0.0489,-0.0548,-0.0544,-0.054,-0.0505,-0.048,-0.0586,-0.0587,-0.0587,-0.0588,-0.0588,0,-0.0035,0.0034,0.0127,0.0258,0.036,0.0399,0.0522,0.0583,0.066,0.0685,0.0673,0.0467,0.0243,0.0008,-0.0301,-0.0512,-0.0499,-0.0566,-0.0497,-0.0494,-0.0491,-0.045,-0.0519,-0.052,-0.052,-0.052,0,0,0.0001,0.0103,0.0154,0.0334,0.043,0.0575,0.0653,0.0713,0.0759,0.0757,0.074,0.065,0.0337,0.013,-0.0158,-0.0326,-0.035,-0.0354,-0.039,-0.0272,-0.0266,-0.047,-0.0403,0,0,0,0,0]}],[{"header":{"parameterUnit":"m.s-1","parameterCategory":2,"la1":30.2991,"la2":30.254,"lo1":-89.0895,"lo2":-89.0444,"dy":0.0017,"dx":0.0017,"nx":28,"ny":28,"refTime":"2023-08-23T21:00:00:Z","depth":"4","parameterNumber":2,"parameterNumberName":"U-component_of_CURRENTS"},"data":[0,0,0,0,0,0,0,0,0,0,0,0,0,0,0,0,0,0,0,0,0,0,0,0,0,0,0,0,0,0,0,0,0,0,0,0,0,0,0,0,0,0,0,0,0,0,0,0,0,0,0,0,0,0,0,0,0,0,0.066,0.066,0,0.0676,0.0676,0.0676,0.0699,0.0699,0.0699,0.07,0.0706,0.0706,0.0706,0,0,0,0,0,0,0,0,0,0,0,0,0,0.0645,0.0645,0.066,0.066,0.0661,0.0676,0.0676,0.0677,0.0699,0.0699,0.07,0.07,0.0706,0.0706,0.0706,0,0,0,0,0,0,0,0,0,0,0,0,0,0.0655,0.0645,0.066,0.0674,0.0675,0.0676,0.0676,0.0677,0.0699,0.0699,0.07,0.07,0.0706,0.0706,0.0706,0.0693,0,0,0.0705,0.0705,0,0,0,0,0,0,0,0,0.0655,0.0656,0.0671,0.0673,0.0674,0.0686,0.0673,0.0681,0.0698,0.069,0.07,0.07,0.0698,0.0699,0.07,0.0693,0.0693,0.0705,0.0705,0.0705,0.0704,0,0,0,0,0,0,0,0.0654,0.0655,0.0666,0.0672,0.0673,0.0677,0.068,0.0675,0.069,0.069,0.0692,0.0694,0.0699,0.0701,0.0701,0.0693,0.0705,0.0705,0.0704,0.0704,0.0728,0.0729,0,0,0,0,0,0,0.0652,0.0655,0.0666,0.0667,0.0666,0.0677,0.068,0.0682,0.0691,0.0693,0.0693,0.0695,0.0701,0.0701,0.0701,0.0738,0.0705,0.0704,0.0704,0.0727,0.0728,0.0729,0,0,0,0,0,0,0.0651,0.0653,0.0665,0.0661,0.0663,0.0677,0.0679,0.0682,0.0703,0.0693,0.0695,0.0714,0.0701,0.0701,0.0714,0.0737,0.0704,0.0704,0.0726,0.0727,0.0729,0.0779,0,0,0,0,0,0,0.0651,0.0652,0.0663,0.0661,0.0663,0.0679,0.0679,0.0682,0.0702,0.0705,0.0711,0.0711,0.0702,0.0714,0.0713,0.0736,0.0704,0.0725,0.0727,0.0728,0.0776,0.0782,0.0786,0,0,0,0,0,0.065,0.0657,0.0663,0.0665,0.0674,0.068,0.0682,0.0693,0.0703,0.0715,0.072,0.0712,0.0723,0.0714,0.0713,0.0736,0.0724,0.0726,0.0728,0.0774,0.0781,0.0786,0,0,0,0,0,0,0.0656,0.0659,0.0666,0.0674,0.0684,0.0684,0.0697,0.0705,0.0718,0.0726,0.0719,0.0719,0.0737,0.0729,0.0719,0.0747,0.0724,0.0726,0.0759,0.0765,0.077,0.0771,0.0703,0,0,0,0,0,0.0662,0.0671,0.0673,0.0684,0.0689,0.0698,0.0706,0.0714,0.0721,0.0729,0.0734,0.0738,0.0739,0.0748,0.0744,0.0759,0.0748,0.0774,0.0779,0.0784,0.0784,0.0777,0.0781,0.0735,0.0735,0.0735,0,0,0.0668,0.0672,0.0678,0.0687,0.0696,0.0705,0.0705,0.0722,0.0737,0.0725,0.0754,0.0754,0.0746,0.0762,0.0771,0.0763,0.0795,0.0786,0.079,0.0787,0.0779,0.0784,0.0787,0.0736,0.0736,0.0736,0,0,0.0678,0.0689,0.0698,0.0705,0.0721,0.0725,0.0735,0.0747,0.0762,0.0785,0.0778,0.0792,0.0804,0.08,0.0799,0.0828,0.0817,0.0836,0.0869,0.0863,0.0867,0.087,0.0879,0.0882,0.0845,0.0845,0.0845,0,0.0687,0.0696,0.0703,0.0712,0.0722,0.0736,0.0748,0.0762,0.078,0.0793,0.0803,0.082,0.0819,0.0827,0.0846,0.084,0.0841,0.0848,0.087,0.0872,0.0874,0.0883,0.0886,0.0848,0.0847,0.0847,0.0847,0,0.0697,0.0711,0.0718,0.0735,0.0747,0.0761,0.0775,0.0798,0.0823,0.0836,0.0862,0.0862,0.0878,0.0881,0.0877,0.0895,0.0893,0.0872,0.0854,0.0882,0.0889,0.0892,0.0851,0.0851,0.085,0.0849,0,0,0.0696,0.072,0.0724,0.0737,0.076,0.0769,0.0798,0.0822,0.0849,0.0874,0.0907,0.0916,0.093,0.0929,0.0926,0.0925,0.0953,0.0918,0.0916,0.0927,0.0957,0.0953,0.0955,0.0939,0.0939,0.0939,0.0963,0,0.0703,0.0721,0.0734,0.0761,0.077,0.0793,0.0821,0.0848,0.0879,0.0916,0.0924,0.0954,0.0945,0.0967,0.0966,0.0954,0.0959,0.0949,0.0928,0.0928,0.092,0.0957,0.094,0.0964,0.0965,0.0965,0.0965,0,0.0703,0.0716,0.0739,0.0775,0.0784,0.0809,0.0855,0.0885,0.0931,0.0957,0.0986,0.1001,0.1022,0.1006,0.1002,0.1002,0.099,0.0973,0.0973,0.0949,0.0927,0.0926,0.0969,0.0969,0.0968,0.0968,0.0968,0,0.0685,0.0718,0.0739,0.0749,0.0791,0.0819,0.0855,0.0902,0.0935,0.0993,0.1027,0.1044,0.1074,0.1051,0.1049,0.103,0.104,0.1001,0.0981,0.0981,0.0954,0.095,0.0989,0.0989,0.0989,0.0989,0.0989,0,0.0672,0.0688,0.0739,0.0746,0.0786,0.0826,0.0879,0.0915,0.0978,0.102,0.1058,0.1088,0.1088,0.1102,0.1072,0.1053,0.1062,0.0996,0.0987,0.0977,0.0976,0.0956,0.0952,0.099,0.099,0.099,0.0989,0,0.0635,0.0669,0.0694,0.0751,0.0776,0.0809,0.0891,0.0926,0.0995,0.1053,0.1079,0.1138,0.1162,0.1159,0.1138,0.1093,0.1062,0.1049,0.1071,0.1061,0.0998,0.0997,0.1016,0.1016,0.1016,0.1016,0.1016,0,0.0612,0.0623,0.0688,0.0712,0.0742,0.0801,0.0843,0.0923,0.0964,0.1071,0.1094,0.1163,0.119,0.1162,0.1157,0.1118,0.1093,0.1074,0.1004,0.1012,0.1001,0.0999,0.0998,0.1016,0.1016,0.1017,0.1017,0,0.0563,0.0597,0.0619,0.0673,0.0722,0.0766,0.0839,0.0866,0.0965,0.1034,0.1091,0.1114,0.1154,0.1146,0.1149,0.1104,0.1081,0.1074,0.1072,0.1005,0.1013,0.1001,0.1,0.1017,0.1017,0.1017,0.1017,0,0.0529,0.0537,0.0582,0.0627,0.0681,0.0721,0.0763,0.0828,0.0884,0.1009,0.1027,0.1092,0.1154,0.1141,0.113,0.1114,0.1071,0.1008,0.1008,0.1008,0.0994,0.1001,0.1003,0,0,0,0,0,0.0492,0.0504,0.0535,0.0582,0.0634,0.0672,0.0755,0.0803,0.0904,0.0927,0.0979,0.1015,0.1038,0.1069,0.1043,0.1105,0.1061,0.107,0.0984,0.1018,0.1017,0.1001,0,0,0,0,0,0,0.0468,0.0495,0.0514,0.0537,0.0564,0.0619,0.0669,0.0738,0.0762,0.0864,0.0881,0.0959,0.0987,0.104,0.1024,0.1032,0.0959,0.1115,0.1113,0.1018,0.1018,0.1017,0.1,0,0,0,0,0]},{"header":{"parameterUnit":"m.s-1","parameterCategory":2,"la1":30.2991,"la2":30.254,"lo1":-89.0895,"lo2":-89.0444,"dy":0.0017,"dx":0.0017,"nx":28,"ny":28,"refTime":"2023-08-23T21:00:00:Z","depth":"4","parameterNumber":3,"parameterNumberName":"V-component_of_CURRENTS"},"data":[0,0,0,0,0,0,0,0,0,0,0,0,0,0,0,0,0,0,0,0,0,0,0,0,0,0,0,0,0,0,0,0,0,0,0,0,0,0,0,0,0,0,0,0,0,0,0,0,0,0,0,0,0,0,0,0,0,0,-0.0164,-0.0165,0,-0.0197,-0.0197,-0.0198,-0.0225,-0.0225,-0.0225,-0.0225,-0.0269,-0.027,-0.0271,0,0,0,0,0,0,0,0,0,0,0,0,0,-0.0149,-0.0149,-0.0164,-0.0165,-0.0165,-0.0197,-0.0197,-0.0198,-0.0225,-0.0225,-0.0225,-0.0225,-0.0269,-0.027,-0.0271,0,0,0,0,0,0,0,0,0,0,0,0,0,-0.0167,-0.0149,-0.0164,-0.0182,-0.0183,-0.0196,-0.0197,-0.0198,-0.0225,-0.0225,-0.0225,-0.0226,-0.0268,-0.027,-0.0271,-0.0274,0,0,-0.0276,-0.0276,0,0,0,0,0,0,0,0,-0.0166,-0.0168,-0.0179,-0.018,-0.0182,-0.0206,-0.0208,-0.0223,-0.0225,-0.021,-0.0225,-0.0226,-0.0248,-0.0251,-0.0258,-0.0276,-0.0278,-0.0276,-0.0277,-0.0277,-0.0278,0,0,0,0,0,0,0,-0.0165,-0.0166,-0.0178,-0.0179,-0.0181,-0.0196,-0.0198,-0.0211,-0.0228,-0.0211,-0.0213,-0.0215,-0.025,-0.0256,-0.0259,-0.0278,-0.0276,-0.0277,-0.0278,-0.0279,-0.0341,-0.0342,0,0,0,0,0,0,-0.0157,-0.0165,-0.0177,-0.0179,-0.0174,-0.0196,-0.0199,-0.0199,-0.0228,-0.0232,-0.0215,-0.0216,-0.0254,-0.0257,-0.0261,-0.0295,-0.0277,-0.0279,-0.028,-0.034,-0.0341,-0.0342,0,0,0,0,0,0,-0.0157,-0.0158,-0.0176,-0.0172,-0.0175,-0.0195,-0.0196,-0.0199,-0.0212,-0.023,-0.0235,-0.0223,-0.0254,-0.0259,-0.0281,-0.0296,-0.0279,-0.0281,-0.0339,-0.034,-0.0342,-0.0344,0,0,0,0,0,0,-0.0156,-0.0157,-0.0159,-0.0172,-0.0175,-0.0184,-0.0195,-0.02,-0.0212,-0.0214,-0.0239,-0.0243,-0.0255,-0.0279,-0.0283,-0.0297,-0.0282,-0.0338,-0.034,-0.0341,-0.0343,-0.0345,-0.0347,0,0,0,0,0,-0.0155,-0.0154,-0.0159,-0.016,-0.0175,-0.0184,-0.0188,-0.0203,-0.0212,-0.0216,-0.0238,-0.0242,-0.0291,-0.0281,-0.0285,-0.03,-0.0338,-0.0339,-0.0341,-0.0342,-0.0345,-0.0347,0,0,0,0,0,0,-0.0152,-0.0157,-0.0162,-0.0164,-0.0174,-0.0188,-0.0194,-0.0204,-0.0225,-0.0229,-0.0248,-0.0254,-0.0283,-0.029,-0.0278,-0.0324,-0.0317,-0.0319,-0.0316,-0.0319,-0.0321,-0.0317,-0.0283,0,0,0,0,0,-0.015,-0.015,-0.0159,-0.0161,-0.0164,-0.018,-0.0187,-0.0196,-0.0213,-0.0223,-0.0242,-0.0266,-0.0292,-0.0303,-0.0324,-0.0343,-0.0354,-0.0358,-0.036,-0.0362,-0.0362,-0.0397,-0.0402,-0.0348,-0.0348,-0.0348,0,0,-0.0151,-0.0153,-0.0154,-0.0161,-0.017,-0.0174,-0.0185,-0.0194,-0.0203,-0.0224,-0.0247,-0.0273,-0.03,-0.0327,-0.034,-0.0335,-0.0382,-0.0364,-0.0365,-0.0365,-0.04,-0.0405,-0.041,-0.0349,-0.0349,-0.0349,0,0,-0.0148,-0.0153,-0.0149,-0.0155,-0.0163,-0.0172,-0.0174,-0.019,-0.0204,-0.0226,-0.0251,-0.0286,-0.0315,-0.0343,-0.036,-0.0385,-0.0393,-0.0393,-0.0397,-0.0431,-0.0436,-0.044,-0.0452,-0.0457,-0.0391,-0.0391,-0.0391,0,-0.015,-0.0144,-0.0151,-0.0149,-0.0153,-0.017,-0.0169,-0.0186,-0.0211,-0.0225,-0.0233,-0.0302,-0.0325,-0.0368,-0.0382,-0.039,-0.0402,-0.0384,-0.0433,-0.0438,-0.0442,-0.0453,-0.0459,-0.0392,-0.0392,-0.0392,-0.0392,0,-0.0141,-0.0139,-0.0138,-0.0139,-0.0146,-0.0148,-0.0166,-0.018,-0.0201,-0.0223,-0.0269,-0.0309,-0.035,-0.0368,-0.0384,-0.043,-0.0426,-0.0433,-0.0424,-0.0448,-0.0458,-0.0464,-0.0392,-0.0392,-0.0392,-0.0392,0,0,-0.0138,-0.0132,-0.0131,-0.0126,-0.0139,-0.014,-0.0159,-0.018,-0.0194,-0.0235,-0.0264,-0.0327,-0.0354,-0.0376,-0.0407,-0.044,-0.0483,-0.0449,-0.0451,-0.0455,-0.0545,-0.05,-0.0503,-0.05,-0.0501,-0.0502,-0.0536,0,-0.0129,-0.0113,-0.0118,-0.0113,-0.0106,-0.0126,-0.014,-0.0165,-0.0195,-0.0228,-0.0285,-0.0324,-0.0355,-0.0378,-0.0421,-0.047,-0.0501,-0.0472,-0.0526,-0.0527,-0.0481,-0.0509,-0.0506,-0.054,-0.0542,-0.0543,-0.0544,0,-0.0119,-0.0106,-0.0092,-0.0089,-0.009,-0.0094,-0.0115,-0.013,-0.0183,-0.0207,-0.0263,-0.0306,-0.0373,-0.0391,-0.0486,-0.0467,-0.0507,-0.0541,-0.0543,-0.0505,-0.0495,-0.0516,-0.0554,-0.0554,-0.0553,-0.0552,-0.0551,0,-0.0101,-0.0091,-0.0075,-0.0074,-0.0076,-0.008,-0.0088,-0.0126,-0.0134,-0.0195,-0.021,-0.0299,-0.0334,-0.0413,-0.0489,-0.0492,-0.058,-0.059,-0.0586,-0.0582,-0.0609,-0.0605,-0.0653,-0.0653,-0.0653,-0.0653,-0.0653,0,-0.0085,-0.0074,-0.0063,-0.0053,-0.0038,-0.0055,-0.0055,-0.0077,-0.011,-0.0116,-0.0196,-0.0217,-0.0343,-0.0408,-0.0484,-0.0548,-0.0577,-0.059,-0.0594,-0.0608,-0.0603,-0.0613,-0.0608,-0.0654,-0.0654,-0.0654,-0.0654,0,-0.0065,-0.0061,-0.0039,-0.003,-0.0026,-0.0016,-0.0015,-0.0016,-0.0051,-0.006,-0.0076,-0.0161,-0.0245,-0.0355,-0.0474,-0.052,-0.0597,-0.0609,-0.0601,-0.0603,-0.0577,-0.0572,-0.0613,-0.0612,-0.0611,-0.061,-0.0609,0,-0.0052,-0.0037,-0.0011,0.0009,0.0016,0.0029,0.004,0.0017,0.0023,-0.0016,-0.0014,-0.0098,-0.0162,-0.0287,-0.0416,-0.055,-0.0565,-0.0596,-0.0608,-0.0576,-0.0576,-0.0572,-0.0568,-0.0608,-0.0607,-0.0607,-0.0607,0,-0.002,-0.0013,0.0013,0.0053,0.0073,0.0098,0.0114,0.0125,0.0103,0.0074,0.0054,-0.0029,-0.0118,-0.0251,-0.0354,-0.0454,-0.0578,-0.0587,-0.059,-0.0602,-0.057,-0.057,-0.0568,-0.0603,-0.0604,-0.0604,-0.0604,0,0.0008,0.003,0.0062,0.0097,0.0128,0.0159,0.0161,0.0174,0.0174,0.0136,0.0132,0.0017,-0.006,-0.0199,-0.0297,-0.0391,-0.0418,-0.044,-0.0451,-0.0456,-0.0406,-0.0342,-0.0312,0,0,0,0,0,0.0036,0.0064,0.0103,0.014,0.0172,0.0187,0.0209,0.0205,0.019,0.0197,0.0168,0.0089,-0.0058,-0.0135,-0.0218,-0.0296,-0.0448,-0.0396,-0.0481,-0.0585,-0.0589,-0.0553,0,0,0,0,0,0,0.0055,0.0095,0.0112,0.017,0.02,0.0233,0.0248,0.0239,0.0242,0.0215,0.0138,0.0088,-0.0063,-0.0005,-0.0213,-0.0247,-0.0306,-0.0477,-0.0478,-0.0582,-0.0586,-0.0589,-0.0554,0,0,0,0,0]}]]